User: anonymous   Login
Location: Palo Alto
(37.4420°N, 122.1420°W)
Time: 09:46:09
(UTC-07:00)
Language:

X-37B - Orbit

View from above orbital plane
View from above orbital plane
View from above satellite
View from above satellite

Ground track
Ground track

The orbit data is extracted from the following two-line orbital elements,

1 45606U 20029A   20262.19139310 0.00000000  00000-0  00000-0 0    06
2 45606  45.0348 333.8258 0001000 290.1098  69.8898 15.60258651    06
Epoch (UTC): 18 September 2020 04:35:36
Eccentricity: 0.0001000
inclination: 45.0348°
perigee height: 386 km
apogee height: 387 km
right ascension of ascending node: 333.8258°
argument of perigee: 290.1098°
revolutions per day: 15.60258651
mean anomaly at epoch: 69.8898°
orbit number at epoch: 0

The dashed part of the orbit path shows where the satellite is in the earth's shadow,  

DLR